Location: Feydey
(46.3431°N, 7.0106°E)
Time: 17:59:48
(UTC+00:00)

deb Atmosphere 2 - Pass Details

Date: 03 February 2022
Orbit: 828 x 839 km, 98.6° (Epoch: 18 May)

Event Time Altitude Azimuth Distance (km) Brightness Sun altitude
Rises 05:51:14 0° 8° (N) 3,401 ? -10.9°
Reaches altitude 10° 05:53:43 10° 1° (N) 2,461 ? -10.5°
Maximum altitude 05:58:45 40° 294° (WNW) 1,225 ? -9.7°
Drops below altitude 10° 06:03:44 10° 226° (SW) 2,438 ? -8.8°
Sets 06:06:12 0° 219° (SW) 3,365 ? -8.4°
